Location: Warszawa
(52.2500°N, 21.0000°E)
Time: 13:35:46
(UTC+02:00)

ISS - Visible Passes

Search period start: 20 April 2024 00:00
Search period end: 30 April 2024 00:00
Orbit: 412 x 418 km, 51.6° (Epoch: 20 April)

Date Brightness Start Highest point End Pass type
(mag) Time Alt. Az. Time Alt. Az. Time Alt. Az.
24 Apr -1.3 03:57:40 10° S 03:59:28 14° SE 04:01:16 10° ESE visible
26 Apr -2.3 03:55:35 14° SSW 03:57:41 26° SSE 04:00:31 10° E visible
27 Apr -1.9 03:08:12 18° SSE 03:08:42 18° SE 03:11:06 10° E visible
28 Apr -1.1 02:20:44 11° ESE 02:20:44 11° ESE 02:21:17 10° ESE visible
28 Apr -3.2 03:53:34 17° SW 03:55:49 44° SSE 03:59:01 10° E visible
29 Apr -2.8 03:06:01 30° S 03:06:40 33° SSE 03:09:42 10° E visible
